sat.trackr.live / text

‹ back to catalog

STARLINK-31844

NORAD 60583 · 2024-150A

PAYLOAD ACTIVE UNKNOWN

§ Identity

Operator
Country
US
Launch date
2024-08-20
Launch site
AFETR
Launch vehicle
Mass (kg)
RCS (m²)

Purposes: comms

External: N2YO · Heavens-Above · Gunter

§ Orbital elements

Epoch: 2026-05-25T04:41:38.601024Z

Period
94.01 min
Inclination
53.1608°
Eccentricity
0.0001208
Mean motion
15.31704715 rev/d
Perigee alt
469.9 km
Apogee alt
471.6 km
Semi-major
6,848.9 km
B*
1.2503e-5
RAAN
311.0384°
Arg perigee
83.2525°
Mean anomaly
276.8614°
Rev number
9,976

§ Raw data

STARLINK-318441 60583U 24150A   26145.19558566  .00000023  00000+0  12503-4 0  99962 60583  53.1608 311.0384 0001208  83.2525 276.8614 15.31704715 99762

JSON: /api/v1/satellites/60583 · /tle

For live sub-satellite position, see the globe view (requires WebGL).

§ Visibility from observer

Set your observer location to see the next 7 days of passes ≥ 10°. The values pass through the URL so the page stays shareable.

No JS? Fill the form by hand. The geolocation button needs JavaScript.